This demonstration page uses our WeatherBlox Daily Observations layout. Learn more.

Left ArrowRight Arrow

31.31129, -92.44514

Hourly Observations for October 8, 2022

Temp ( °F °C ) Dew Point ( °F °C ) Humidity (%) Winds ( mph kmh ) Pressure ( in mb ) Visibility ( mi km ) Precip ( " mm )
12:53 am 00:53 Clear 73 22.8 54 12.2 51 51 NE 6 9 30.19 1022 10 16 0.00 0.00
1:53 am 01:53 Clear 72 22.2 54 12.2 53 53 NE 6 9 30.19 1023 10 16 0.00 0.00
2:53 am 02:53 Clear 71 21.7 53 11.7 53 53 ENE 3 6 30.20 1023 10 16 0.00 0.00
3:53 am 03:53 Clear 71 21.7 53 11.7 53 53 ENE 6 9 30.21 1023 10 16 0.00 0.00
4:53 am 04:53 Clear 69 20.6 55 12.8 61 61 NE 6 9 30.22 1023 10 16 0.00 0.00
5:53 am 05:53 Clear 69 20.6 55 12.8 61 61 ENE 7 11 30.24 1024 10 16 0.00 0.00
6:53 am 06:53 Clear 65 18.3 55 12.8 70 70 NE 7 11 30.26 1025 10 16 0.00 0.00
7:53 am 07:53 Sunny 65 18.3 55 12.8 70 70 NNE 3 6 30.28 1025 9 14 0.00 0.00
8:53 am 08:53 Sunny 70 21.1 56 13.3 61 61 ENE 8 13 30.29 1026 10 16 0.00 0.00
9:53 am 09:53 Sunny 73 22.8 56 13.3 55 55 ENE 8 13 30.31 1026 10 16 0.00 0.00
10:53 am 10:53 Sunny 77 25 56 13.3 48 48 NE 9 15 30.30 1026 10 16 0.00 0.00
11:53 am 11:53 Sunny 80 26.7 57 13.9 45 45 NE 8 13 30.29 1026 10 16 0.00 0.00
12:53 pm 12:53 Sunny 83 28.3 55 12.8 38 38 ENE 10 17 30.27 1025 10 16 0.00 0.00
1:53 pm 13:53 Sunny 85 29.4 53 11.7 34 34 N 12 19 30.24 1024 10 16 0.00 0.00
2:53 pm 14:53 Sunny 85 29.4 51 10.6 31 31 ENE 12 19 30.21 1023 10 16 0.00 0.00
3:53 pm 15:53 Sunny 85 29.4 51 10.6 31 31 ENE 9 15 30.20 1023 10 16 0.00 0.00
4:53 pm 16:53 Sunny 84 28.9 52 11.1 33 33 NE 8 13 30.19 1023 10 16 0.00 0.00
5:53 pm 17:53 Sunny 81 27.2 52 11.1 37 37 NNE 9 15 30.20 1023 10 16 0.00 0.00
6:53 pm 18:53 Clear 77 25 52 11.1 42 42 NNE 6 9 30.21 1023 10 16 0.00 0.00
7:53 pm 19:53 Clear 72 22.2 53 11.7 51 51 NNE 6 9 30.23 1024 10 16 0.00 0.00
8:53 pm 20:53 Clear 70 21.1 53 11.7 55 55 NNE 5 7 30.24 1024 10 16 0.00 0.00
9:53 pm 21:53 Clear 63 17.2 52 11.1 67 67 NNE 3 6 30.26 1025 10 16 0.00 0.00
10:53 pm 22:53 Clear 64 17.8 54 12.2 70 70 NNE 3 6 30.27 1025 10 16 0.00 0.00
11:53 pm 23:53 Clear 62 16.7 51 10.6 67 67 Calm 30.27 1025 10 16 0.00 0.00

Powered by AerisWeather